Zurück zum Katalog

STARLINK-35677

AktivKommunikationVLEO
NORAD 66220·PAYLOAD·🇺🇸 United States

Gestartet Oct 28, 2025 von Vandenberg Space Force Base

Loading…

Nächste Überflüge (nächste 24 Stunden)

TLE

AktuellSource: CelesTrak SupGP

Epoche: Sep 14, 2026, 15:48 UTC

1 66220C 25244Q   26257.65881944 -.00019319  00000+0 -57104-3 0  2571
2 66220  53.1587  68.7415 0000930  98.1166 125.2029 15.34386820    13

Verfolge STARLINK-35677 in Echtzeit mit AllMySat

Download on the App Store